Rbgn^[z[y[W
メイン
   新天体発見情報
     Comet P/2021 Q5 (ATLAS)
投稿するにはまず登録を

フラット表示 前のトピック | 次のトピック
投稿者 スレッド
佐藤裕久
投稿日時: 2021-9-25 22:13
モデレータ
登録日: 2005-6-12
居住地: 日本
投稿: 2585
オンライン
Comet P/2021 Q5 (ATLAS)

P. Veres (小惑星のセンター)によると、8月29.6日UT、L. Denneauは、ハワイ Haleakala
にある小惑星地球衝突最終警報システム Asteroid Terrestrial-impact Last Alert System 
(ATLAS)調査プログラムのコースに0.5-m f/2 Schmidt反射望遠鏡で得たCCD画像から彗星を
発見したと通報した。
小惑星センターのPCCP webpageに公表後、J.-F. Soulier (Maisoncelles, フランス, 9月1.09-
1.15日UT, 30秒露出200枚 フィルターなしCCD, 0.30-m f/3.8 ニュートン反射望遠鏡: 23" x 
17"の拡散したコマが見えるが尾はない。5".7の範囲の光度は17.1等であった。9月2.12-2.15日,
30秒露出130枚: 20" x 12"の拡散したコマが見えるが尾はない。5".7の範囲の光度は17.1等で
あった)らCCD位置観測者によって彗星状と観測された。

彗星機能の報告は次の通り、

OC   Date        Reporter           Coma    Tail    PA          Exposures
I41  2021-08-30  B. T. Bolin        4"       13"    280-300
I41  2021-08-30  D. Duev            5"        9"    260-270 
Z17  2021-08-31  A. Hale            6"       15"    275
204  2021-09-01  A. Aletti         12"       12"    280
G40  2021-09-01  N. Paul            8".6                         21x50s
A71  2021-09-03  M. Jaeger        130"                            6x100s
G40  2021-09-03  B. Lutkenhoner     7"                           35x50s
G18  2021-09-03  A. Valvasori       8"       10"    270          58x30s
215  2021-09-05  W. Hasubick       42"     
A71  2021-09-05  M. Jaeger        140"                            9x120s
Y00  2021-09-05  C. Jacques        22"       32"    273          50x30s

発見位置は次のとおり、

     2021 UT             R.A. (2000) Decl.       Mag.
     Aug. 29.60677    6 50 43.47   +22 54 23.5   17.5
          29.61227    6 50 44.73   +22 54 19.6   17.3
          29.62884    6 50 48.62   +22 54 06.4   17.0
          29.63683    6 50 50.50   +22 54 00.0   17.7

MPCの楕円軌道要素、位置推算表は次のとおり、

Orbital elements:
    P/2021 Q5 (ATLAS)                                                           
Epoch 2021 Aug. 14.0 TT = JDT 2459440.5                                         
T 2021 Aug. 30.34197 TT                                 Rudenko                 
q   1.2327067            (2000.0)            P               Q                  
n   0.16993306     Peri.  180.81113     +0.49246292     -0.85536096             
a   3.2281284      Node   239.70035     +0.79956000     +0.51758596             
e   0.6181358      Incl.   10.72954     +0.34377911     +0.02150370             
P   5.80                                                                        
From 92 observations 2021 Aug. 29-Sept. 5, mean residual 0".6.                  
                                                                                
    P/2021 Q5 (ATLAS)                                                           
Epoch 2027 June 4.0 TT = JDT 2461560.5                                          
T 2027 June 21.66485 TT                                 Rudenko                 
q   1.2327043            (2000.0)            P               Q                  
n   0.16988735     Peri.  180.92370     +0.49163274     -0.85584971             
a   3.2287073      Node   239.64435     +0.80013514     +0.51679296             
e   0.6182050      Incl.   10.73168     +0.34362917     +0.02112604             
P   5.80                                                                        
From 92 observations 2021 Aug. 29-Sept. 5, mean residual 0".6.                  
                                                                                
    P/2021 Q5 (ATLAS)                                                           
Epoch 2021 July 5.0 TT = JDT 2459400.5                                          
T 2021 Aug. 30.34054 TT                                 Rudenko                 
q   1.2327114            (2000.0)            P               Q                  
n   0.16992384     Peri.  180.80961     +0.49248080     -0.85535080             
a   3.2282452      Node   239.70067     +0.79954876     +0.51760239             
e   0.6181481      Incl.   10.72946     +0.34377964     +0.02151231             
P   5.80                                                                        
From 92 observations 2021 Aug. 29-Sept. 5, mean residual 0".6.                  
                                                                                
Ephemeris:
Date    TT    R. A. (2000) Decl.     Delta      r    Elong.  Phase   m1
2021 08 07    05 17 11.6 +26 04 42   1.5564  1.2649    54.1    40.5  17.0
...
2021 08 22    06 20 09.5 +24 23 31   1.5160  1.2369    54.3    41.6  16.8
...
2021 08 30    06 52 15.6 +22 49 13   1.5042  1.2327    54.5    41.8  16.8
...
2021 09 05    07 15 20.2 +21 23 12   1.4989  1.2346    54.9    41.9  16.8
2021 09 06    07 19 05.3 +21 07 46   1.4983  1.2354    54.9    41.9  16.8
2021 09 07    07 22 48.8 +20 52 02   1.4977  1.2362    55.0    41.9  16.8
...
2021 09 13    07 44 33.2 +19 12 08   1.4955  1.2438    55.6    41.9  16.8
...
2021 09 21    08 11 52.1 +16 47 03   1.4953  1.2604    56.5    41.7  16.9
...
2021 10 06    08 57 53.7 +11 53 28   1.4984  1.3098    59.3    41.0  17.1

(MPEC 2021-R98、CBET 5029)


フラット表示 前のトピック | 次のトピック

題名 投稿者 日時
 » Comet P/2021 Q5 (ATLAS) 佐藤裕久 2021-9-25 22:13

投稿するにはまず登録を
 
© 1999 Tsutomu Seki.